Location: Blackwater Beach
(38.5801°N, 75.1577°W)
Time: 10:34:53
(UTC+00:00)

Resurs 1-3 - Pass Details

Date: 13 February 2026
Orbit: 612 x 615 km, 97.7° (Epoch: 11 March)

Event Time Altitude Azimuth Distance (km) Brightness Sun altitude
Rises 23:23:13 0° 165° (SSE) 2,869 6.9 -9.7°
Reaches altitude 10° 23:25:23 10° 164° (SSE) 1,968 6.1 -10.2°
Maximum altitude 23:29:40 84° 76° (ENE) 623 3.5 -11.0°
Drops below altitude 10° 23:33:59 10° 349° (N) 1,981 6.2 -11.8°
Sets 23:36:10 0° 349° (N) 2,890 7.0 -12.2°
